K1CSF Weather Reports


time (UTC)temp
F
wind
direction
speed
knots
gust
knots
rain 1hr
in
rain 24hr
in
rain mn
in
humidity
%
barometer
mb
20260506183032 43 312 0.9 4.3 0.07 0.92 0.73 92 1008.5
20260506181534 42 293 2.6 5.2 0.07 0.91 0.72 92 1008.7
20260506180031 42 290 0.9 4.3 0.08 0.89 0.70 92 1008.8
20260506174530 42 302 0.9 4.3 0.08 0.87 0.68 92 1008.8
20260506173037 42 296 0.9 4.3 0.09 0.85 0.66 92 1009.0
20260506171529 43 296 0.9 6.1 0.10 0.84 0.65 91 1008.9
20260506170028 42 325 0.9 5.2 0.10 0.81 0.62 92 1008.9
20260506164528 42 350 1.7 5.2 0.11 0.79 0.60 91 1009.1
20260506163044 42 337 2.6 6.1 0.11 0.76 0.56 92 1009.1
20260506161529 42 340 3.5 9.6 0.11 0.74 0.55 91 1009.2
20260506160023 42 318 4.3 7.8 0.08 0.70 0.51 91 1009.3
20260506154530 42 290 1.7 6.1 0.08 0.68 0.49 91 1008.9
20260506153020 42 325 2.6 4.3 0.07 0.65 0.46 91 1009.0
20260506151519 43 332 0.9 7.0 0.05 0.63 0.44 91 1008.9
20260506150018 43 16 2.6 5.2 0.06 0.62 0.43 91 1009.0
20260506144517 43 304 0.0 2.6 0.05 0.60 0.41 91 1009.4
20260506143017 43 309 1.7 4.3 0.03 0.57 0.39 91 1009.2
20260506141515 43 42 1.7 7.8 0.05 0.57 0.39 91 1008.9
20260506140020 43 317 0.9 4.3 0.04 0.56 0.37 91 1009.1
20260506134513 43 323 1.7 3.5 0.06 0.55 0.36 91 1009.4
20260506133012 42 323 0.9 4.3 0.07 0.54 0.35 91 1009.6
20260506131517 42 288 1.7 4.3 0.07 0.53 0.34 91 1009.5
20260506130009 42 22 3.5 8.7 0.08 0.52 0.33 91 1009.4
20260506124507 42 344 3.5 7.0 0.08 0.49 0.30 91 1009.7
20260506123008 43 350 1.7 7.8 0.08 0.47 0.28 91 1010.0
20260506121502 43 341 1.7 4.3 0.07 0.46 0.27 91 1009.9
20260506120001 43 324 1.7 4.3 0.06 0.44 0.25 91 1010.6
20260506114600 43 297 2.6 4.3 0.04 0.41 0.22 90 1010.3
20260506113058 44 9 0.9 3.5 0.03 0.40 0.21 90 1009.6
20260506111558 44 31 0.9 4.3 0.03 0.39 0.20 90 1009.5
20260506110101 45 360 0.0 5.2 0.03 0.38 0.19 91 1009.4
20260506104551 45 19 0.9 4.3 0.03 0.37 0.18 91 1009.3
20260506103051 45 53 0.9 2.6 0.03 0.37 0.18 91 1009.8
20260506101603 45 40 0.9 4.3 0.03 0.36 0.17 91 1009.6
20260506100048 45 41 1.7 5.2 0.02 0.35 0.16 91 1009.7
20260506094548 46 5 0.9 4.3 0.02 0.34 0.15 90 1009.8
20260506093045 46 5 0.9 2.6 0.02 0.34 0.15 91 1009.9
20260506091544 46 32 0.9 3.5 0.03 0.33 0.14 91 1009.9
20260506090049 46 315 0.0 2.6 0.03 0.33 0.14 90 1010.1
20260506084545 47 340 1.7 3.5 0.04 0.32 0.13 90 1010.4
20260506083137 47 32 2.6 7.0 0.04 0.32 0.13 91 1010.2
20260506081541 48 57 3.5 7.8 0.02 0.30 0.11 91 1009.7
20260506073029 48 28 0.9 2.6 0.01 0.28 0.09 91 1010.0
20260506071528 49 28 0.9 3.5 0.02 0.28 0.09 91 1009.8
20260506061526 49 264 0.9 2.6 0.03 0.26 0.07 91 1010.3
20260506044516 50 334 1.7 5.2 0.06 0.22 0.03 90 1009.6
20260506043011 50 279 3.5 7.0 0.07 0.21 0.02 90 1009.9
20260506041512 51 284 0.9 3.5 0.09 0.20 0.01 90 1010.0
20260506040005 51 288 0.9 7.0 0.08 0.19 0.19 89 1009.5
20260506034504 52 298 4.3 10.4 0.06 0.16 0.16 89 1009.6
20260506033100 52 336 4.3 8.7 0.04 0.14 0.14 88 1009.2
20260506031556 53 342 3.5 7.0 0.04 0.11 0.11 88 1008.8
20260506030056 53 340 1.7 5.2 0.04 0.11 0.11 89 1008.6
20260506024558 54 341 2.6 7.0 0.04 0.11 0.11 89 1008.3
20260506023107 55 351 3.5 12.2 0.03 0.10 0.10 88 1008.2
20260506021549 58 360 3.5 7.0 0.00 0.07 0.07 85 1008.6
20260506020053 58 182 0.9 1.7 0.00 0.07 0.07 84 1008.0
20260506014546 59 182 0.9 1.7 0.01 0.07 0.07 82 1007.7
20260506013052 59 194 2.6 7.0 0.01 0.07 0.07 82 1007.3
20260506011547 58 171 0.9 6.1 0.01 0.07 0.07 84 1007.1
20260506010043 59 171 1.7 4.3 0.00 0.06 0.06 83 1007.1
20260506004543 59 152 0.9 2.6 0.00 0.06 0.06 84 1007.0
20260506003043 58 147 0.9 3.5 0.00 0.06 0.06 86 1006.8
20260506001552 58 135 0.0 3.5 0.00 0.06 0.06 87 1006.6
20260506000042 58 138 1.7 4.3 0.00 0.06 0.06 87 1006.5
20260505234542 59 164 1.7 6.1 0.00 0.06 0.06 86 1006.5
20260505233041 58 159 1.7 5.2 0.00 0.06 0.06 87 1006.3
20260505231541 59 156 0.9 5.2 0.00 0.06 0.06 88 1006.0
20260505230108 59 156 0.9 4.3 0.00 0.06 0.06 88 1005.8
20260505224540 59 207 0.9 4.3 0.00 0.06 0.06 88 1006.3
20260505223043 59 194 1.7 3.5 0.00 0.06 0.06 88 1006.0
20260505221545 60 194 1.7 5.2 0.00 0.06 0.06 88 1005.9
20260505220050 59 163 2.6 7.0 0.00 0.06 0.06 88 1005.7
20260505214539 59 188 2.6 6.1 0.00 0.06 0.06 88 1005.6
20260505213038 59 162 2.6 4.3 0.02 0.06 0.06 88 1006.0
20260505211537 59 251 0.9 2.6 0.02 0.06 0.06 87 1005.7
20260505210037 59 202 0.9 4.3 0.02 0.06 0.06 87 1005.5
20260505204536 59 298 2.6 13.9 0.02 0.06 0.06 87 1005.8
20260505203036 60 207 0.0 5.2 0.00 0.04 0.04 87 1005.4
20260505201535 60 204 1.7 4.3 0.01 0.04 0.04 87 1004.3
20260505200040 60 313 1.7 7.0 0.04 0.04 0.04 86 1004.2
20260505194533 59 344 3.5 7.8 0.04 0.04 0.04 87 1004.2
20260505193036 60 288 3.5 7.0 0.04 0.04 0.04 84 1004.3
20260505191535 63 273 3.5 20.0 0.03 0.03 0.03 76 1003.9
20260505190026 71 219 7.0 18.2 0.00 0.00 0.00 49 1002.8
20260505184528 72 238 7.0 15.6 0.00 0.00 0.00 45 1002.4